Year,Month,Day,Hour,Minute,Value (Times are PST for temperature in C)
2013,12,04,00,00,-2.80
2013,12,04,00,01,-2.80
2013,12,04,00,02,-2.80
2013,12,04,00,03,-2.80
2013,12,04,00,04,-2.80
2013,12,04,00,05,-2.80
2013,12,04,00,06,-2.80
2013,12,04,00,07,-2.90
2013,12,04,00,08,-2.90
2013,12,04,00,09,-2.90
2013,12,04,00,10,-2.90
2013,12,04,00,11,-2.90
2013,12,04,00,12,-2.90
2013,12,04,00,13,-2.90
2013,12,04,00,14,-2.90
2013,12,04,00,15,-2.90
2013,12,04,00,16,-2.90
2013,12,04,00,17,-2.90
2013,12,04,00,18,-2.90
2013,12,04,00,19,-2.90
2013,12,04,00,20,-3.00
2013,12,04,00,21,-3.00
2013,12,04,00,22,-3.00
2013,12,04,00,23,-3.00
2013,12,04,00,24,-3.00
2013,12,04,00,25,-3.00
2013,12,04,00,26,-3.00
2013,12,04,00,27,-3.10
2013,12,04,00,28,-3.10
2013,12,04,00,29,-3.10
2013,12,04,00,30,-3.00
2013,12,04,00,31,-3.00
2013,12,04,00,32,-3.00
2013,12,04,00,33,-3.00
2013,12,04,00,34,-3.00
2013,12,04,00,35,-3.00
2013,12,04,00,36,-3.00
2013,12,04,00,37,-3.00
2013,12,04,00,38,-3.10
2013,12,04,00,39,-3.10
2013,12,04,00,40,-3.10
2013,12,04,00,41,-3.10
2013,12,04,00,42,-3.10
2013,12,04,00,43,-3.10
2013,12,04,00,44,-3.10
2013,12,04,00,45,-3.10
2013,12,04,00,46,-3.10
2013,12,04,00,47,-3.10
2013,12,04,00,48,-3.10
2013,12,04,00,49,-3.20
2013,12,04,00,50,-3.20
2013,12,04,00,51,-3.20
2013,12,04,00,52,-3.20
2013,12,04,00,53,-3.30
2013,12,04,00,54,-3.30
2013,12,04,00,55,-3.30
2013,12,04,00,56,-3.30
2013,12,04,00,57,-3.30
2013,12,04,00,58,-3.40
2013,12,04,00,59,-3.40
2013,12,04,01,00,-3.40
2013,12,04,01,01,-3.40
2013,12,04,01,02,-3.50
2013,12,04,01,03,-3.50
2013,12,04,01,04,-3.50
2013,12,04,01,05,-3.50
2013,12,04,01,06,-3.50
2013,12,04,01,07,-3.60
2013,12,04,01,08,-3.60
2013,12,04,01,09,-3.60
2013,12,04,01,10,-3.60
2013,12,04,01,11,-3.60
2013,12,04,01,12,-3.60
2013,12,04,01,13,-3.70
2013,12,04,01,14,-3.70
2013,12,04,01,15,-3.70
2013,12,04,01,16,-3.70
2013,12,04,01,17,-3.70
2013,12,04,01,18,-3.70
2013,12,04,01,19,-3.70
2013,12,04,01,20,-3.70
2013,12,04,01,21,-3.70
2013,12,04,01,22,-3.70
2013,12,04,01,23,-3.70
2013,12,04,01,24,-3.60
2013,12,04,01,25,-3.60
2013,12,04,01,26,-3.60
2013,12,04,01,27,-3.60
2013,12,04,01,28,-3.60
2013,12,04,01,29,-3.60
2013,12,04,01,30,-3.60
2013,12,04,01,31,-3.60
2013,12,04,01,32,-3.60
2013,12,04,01,33,-3.60
2013,12,04,01,34,-3.60
2013,12,04,01,35,-3.60
2013,12,04,01,36,-3.60
2013,12,04,01,37,-3.60
2013,12,04,01,38,-3.60
2013,12,04,01,39,-3.60
2013,12,04,01,40,-3.70
2013,12,04,01,41,-3.70
2013,12,04,01,42,-3.70
2013,12,04,01,43,-3.70
2013,12,04,01,44,-3.70
2013,12,04,01,45,-3.70
2013,12,04,01,46,-3.70
2013,12,04,01,47,-3.70
2013,12,04,01,48,-3.70
2013,12,04,01,49,-3.70
2013,12,04,01,50,-3.80
2013,12,04,01,51,-3.80
2013,12,04,01,52,-3.80
2013,12,04,01,53,-3.80
2013,12,04,01,54,-3.80
2013,12,04,01,55,-3.80
2013,12,04,01,56,-3.80
2013,12,04,01,57,-3.80
2013,12,04,01,58,-3.80
2013,12,04,01,59,-3.80
2013,12,04,02,00,-3.80
2013,12,04,02,01,-3.80
2013,12,04,02,02,-3.80
2013,12,04,02,03,-3.80
2013,12,04,02,04,-3.80
2013,12,04,02,05,-3.80
2013,12,04,02,06,-3.80
2013,12,04,02,07,-3.80
2013,12,04,02,08,-3.80
2013,12,04,02,09,-3.80
2013,12,04,02,10,-3.80
2013,12,04,02,11,-3.80
2013,12,04,02,12,-3.80
2013,12,04,02,13,-3.80
2013,12,04,02,14,-3.80
2013,12,04,02,15,-3.80
2013,12,04,02,16,-3.80
2013,12,04,02,17,-3.90
2013,12,04,02,18,-3.90
2013,12,04,02,19,-3.90
2013,12,04,02,20,-3.90
2013,12,04,02,21,-3.90
2013,12,04,02,22,-3.90
2013,12,04,02,23,-3.90
2013,12,04,02,24,-3.90
2013,12,04,02,25,-3.90
2013,12,04,02,26,-3.90
2013,12,04,02,27,-3.90
2013,12,04,02,28,-3.90
2013,12,04,02,29,-3.90
2013,12,04,02,30,-3.90
2013,12,04,02,31,-3.90
2013,12,04,02,32,-3.90
2013,12,04,02,33,-3.90
2013,12,04,02,34,-3.90
2013,12,04,02,35,-3.90
2013,12,04,02,36,-3.90
2013,12,04,02,37,-3.90
2013,12,04,02,38,-3.90
2013,12,04,02,39,-3.90
2013,12,04,02,40,-3.90
2013,12,04,02,41,-3.90
2013,12,04,02,42,-3.90
2013,12,04,02,43,-3.90
2013,12,04,02,44,-3.90
2013,12,04,02,45,-3.90
2013,12,04,02,46,-3.90
2013,12,04,02,47,-4.00
2013,12,04,02,48,-4.00
2013,12,04,02,49,-4.00
2013,12,04,02,50,-4.10
2013,12,04,02,51,-4.10
2013,12,04,02,52,-4.10
2013,12,04,02,53,-4.10
2013,12,04,02,54,-4.10
2013,12,04,02,55,-4.20
2013,12,04,02,56,-4.20
2013,12,04,02,57,-4.20
2013,12,04,02,58,-4.20
2013,12,04,02,59,-4.20
2013,12,04,03,00,-4.20
2013,12,04,03,01,-4.20
2013,12,04,03,02,-4.20
2013,12,04,03,03,-4.20
2013,12,04,03,04,-4.20
2013,12,04,03,05,-4.20
2013,12,04,03,06,-4.20
2013,12,04,03,07,-4.20
2013,12,04,03,08,-4.20
2013,12,04,03,09,-4.20
2013,12,04,03,10,-4.20
2013,12,04,03,11,-4.20
2013,12,04,03,12,-4.20
2013,12,04,03,13,-4.20
2013,12,04,03,14,-4.20
2013,12,04,03,15,-4.20
2013,12,04,03,16,-4.20
2013,12,04,03,17,-4.30
2013,12,04,03,18,-4.30
2013,12,04,03,19,-4.30
2013,12,04,03,20,-4.30
2013,12,04,03,21,-4.30
2013,12,04,03,22,-4.30
2013,12,04,03,23,-4.30
2013,12,04,03,24,-4.30
2013,12,04,03,25,-4.40
2013,12,04,03,26,-4.40
2013,12,04,03,27,-4.40
2013,12,04,03,28,-4.40
2013,12,04,03,29,-4.50
2013,12,04,03,30,-4.50
2013,12,04,03,31,-4.50
2013,12,04,03,32,-4.50
2013,12,04,03,33,-4.50
2013,12,04,03,34,-4.50
2013,12,04,03,35,-4.60
2013,12,04,03,36,-4.60
2013,12,04,03,37,-4.60
2013,12,04,03,38,-4.60
2013,12,04,03,39,-4.60
2013,12,04,03,40,-4.60
2013,12,04,03,41,-4.60
2013,12,04,03,42,-4.60
2013,12,04,03,43,-4.60
2013,12,04,03,44,-4.60
2013,12,04,03,45,-4.60
2013,12,04,03,46,-4.60
2013,12,04,03,47,-4.60
2013,12,04,03,48,-4.60
2013,12,04,03,49,-4.60
2013,12,04,03,50,-4.60
2013,12,04,03,51,-4.60
2013,12,04,03,52,-4.60
2013,12,04,03,53,-4.60
2013,12,04,03,54,-4.60
2013,12,04,03,55,-4.70
2013,12,04,03,56,-4.70
2013,12,04,03,57,-4.70
2013,12,04,03,58,-4.70
2013,12,04,03,59,-4.70
2013,12,04,04,00,-4.70
2013,12,04,04,01,-4.70
2013,12,04,04,02,-4.70
2013,12,04,04,03,-4.70
2013,12,04,04,04,-4.70
2013,12,04,04,05,-4.70
2013,12,04,04,06,-4.70
2013,12,04,04,07,-4.70
2013,12,04,04,08,-4.80
2013,12,04,04,09,-4.80
2013,12,04,04,10,-4.80
2013,12,04,04,11,-4.70
2013,12,04,04,12,-4.70
2013,12,04,04,13,-4.70
2013,12,04,04,14,-4.70
2013,12,04,04,15,-4.70
2013,12,04,04,16,-4.70
2013,12,04,04,17,-4.70
2013,12,04,04,18,-4.70
2013,12,04,04,19,-4.70
2013,12,04,04,20,-4.70
2013,12,04,04,21,-4.70
2013,12,04,04,22,-4.70
2013,12,04,04,23,-4.70
2013,12,04,04,24,-4.70
2013,12,04,04,25,-4.70
2013,12,04,04,26,-4.70
2013,12,04,04,27,-4.70
2013,12,04,04,28,-4.60
2013,12,04,04,29,-4.60
2013,12,04,04,30,-4.60
2013,12,04,04,31,-4.60
2013,12,04,04,32,-4.60
2013,12,04,04,33,-4.60
2013,12,04,04,34,-4.60
2013,12,04,04,35,-4.60
2013,12,04,04,36,-4.60
2013,12,04,04,37,-4.60
2013,12,04,04,38,-4.60
2013,12,04,04,39,-4.60
2013,12,04,04,40,-4.60
2013,12,04,04,41,-4.70
2013,12,04,04,42,-4.70
2013,12,04,04,43,-4.70
2013,12,04,04,44,-4.70
2013,12,04,04,45,-4.70
2013,12,04,04,46,-4.70
2013,12,04,04,47,-4.70
2013,12,04,04,48,-4.70
2013,12,04,04,49,-4.70
2013,12,04,04,50,-4.70
2013,12,04,04,51,-4.80
2013,12,04,04,52,-4.80
2013,12,04,04,53,-4.80
2013,12,04,04,54,-4.80
2013,12,04,04,55,-4.80
2013,12,04,04,56,-4.90
2013,12,04,04,57,-4.90
2013,12,04,04,58,-4.90
2013,12,04,04,59,-5.00
2013,12,04,05,00,-5.00
2013,12,04,05,01,-5.00
2013,12,04,05,02,-5.00
2013,12,04,05,03,-5.00
2013,12,04,05,04,-5.00
2013,12,04,05,05,-5.00
2013,12,04,05,06,-5.00
2013,12,04,05,07,-5.00
2013,12,04,05,08,-5.00
2013,12,04,05,09,-5.00
2013,12,04,05,10,-5.00
2013,12,04,05,11,-5.00
2013,12,04,05,12,-5.00
2013,12,04,05,13,-5.00
2013,12,04,05,14,-5.00
2013,12,04,05,15,-5.00
2013,12,04,05,16,-5.10
2013,12,04,05,17,-5.10
2013,12,04,05,18,-5.10
2013,12,04,05,19,-5.10
2013,12,04,05,20,-5.10
2013,12,04,05,21,-5.10
2013,12,04,05,22,-5.10
2013,12,04,05,23,-5.10
2013,12,04,05,24,-5.10
2013,12,04,05,25,-5.10
2013,12,04,05,26,-5.10
2013,12,04,05,27,-5.10
2013,12,04,05,28,-5.10
2013,12,04,05,29,-5.10
2013,12,04,05,30,-5.10
2013,12,04,05,31,-5.10
2013,12,04,05,32,-5.10
2013,12,04,05,33,-5.20
2013,12,04,05,34,-5.20
2013,12,04,05,35,-5.20
2013,12,04,05,36,-5.20
2013,12,04,05,37,-5.20
2013,12,04,05,38,-5.20
2013,12,04,05,39,-5.20
2013,12,04,05,40,-5.30
2013,12,04,05,41,-5.30
2013,12,04,05,42,-5.30
2013,12,04,05,43,-5.30
2013,12,04,05,44,-5.30
2013,12,04,05,45,-5.30
2013,12,04,05,46,-5.30
2013,12,04,05,47,-5.30
2013,12,04,05,48,-5.30
2013,12,04,05,49,-5.20
2013,12,04,05,50,-5.20
2013,12,04,05,51,-5.20
2013,12,04,05,52,-5.20
2013,12,04,05,53,-5.20
2013,12,04,05,54,-5.20
2013,12,04,05,55,-5.20
2013,12,04,05,56,-5.20
2013,12,04,05,57,-5.20
2013,12,04,05,58,-5.30
2013,12,04,05,59,-5.40
2013,12,04,06,00,-5.40
2013,12,04,06,01,-5.40
2013,12,04,06,02,-5.40
2013,12,04,06,03,-5.40
2013,12,04,06,04,-5.40
2013,12,04,06,05,-5.40
2013,12,04,06,06,-5.40
2013,12,04,06,07,-5.40
2013,12,04,06,08,-5.40
2013,12,04,08,39,-4.90
2013,12,04,08,40,-4.90
2013,12,04,08,41,-4.90
2013,12,04,08,42,-4.90
2013,12,04,08,43,-4.90
2013,12,04,08,44,-5.00
2013,12,04,08,45,-5.00
2013,12,04,08,46,-5.00
2013,12,04,08,47,-4.90
2013,12,04,08,48,-4.90
2013,12,04,08,49,-4.90
2013,12,04,08,50,-4.90
2013,12,04,08,51,-4.90
2013,12,04,08,52,-4.90
2013,12,04,08,53,-4.90
2013,12,04,08,54,-4.80
2013,12,04,08,55,-4.80
2013,12,04,08,56,-4.70
2013,12,04,08,57,-4.70
2013,12,04,08,58,-4.60
2013,12,04,08,59,-4.50
2013,12,04,09,00,-4.40
2013,12,04,09,01,-4.30
2013,12,04,09,02,-4.30
2013,12,04,09,03,-4.20
2013,12,04,09,04,-4.20
2013,12,04,09,05,-4.10
2013,12,04,09,06,-4.10
2013,12,04,09,07,-4.10
2013,12,04,09,08,-4.10
2013,12,04,09,09,-4.10
2013,12,04,09,10,-4.10
2013,12,04,09,11,-4.10
2013,12,04,09,12,-4.10
2013,12,04,09,13,-4.10
2013,12,04,09,14,-4.00
2013,12,04,09,15,-4.00
2013,12,04,09,16,-3.90
2013,12,04,09,17,-3.80
2013,12,04,09,18,-3.70
2013,12,04,09,19,-3.70
2013,12,04,09,20,-3.60
2013,12,04,09,21,-3.60
2013,12,04,09,22,-3.50
2013,12,04,09,23,-3.40
2013,12,04,09,24,-3.30
2013,12,04,09,25,-3.30
2013,12,04,09,26,-3.20
2013,12,04,09,27,-3.20
2013,12,04,09,28,-3.20
2013,12,04,09,29,-3.20
2013,12,04,09,30,-3.20
2013,12,04,09,31,-3.20
2013,12,04,09,32,-3.20
2013,12,04,09,33,-3.20
2013,12,04,09,34,-3.20
2013,12,04,09,35,-3.20
2013,12,04,09,36,-3.20
2013,12,04,09,37,-3.20
2013,12,04,09,38,-3.20
2013,12,04,09,39,-3.20
2013,12,04,09,40,-3.10
2013,12,04,09,41,-3.10
2013,12,04,09,42,-3.10
2013,12,04,09,43,-3.00
2013,12,04,09,44,-3.00
2013,12,04,09,45,-2.90
2013,12,04,09,46,-2.90
2013,12,04,09,47,-2.80
2013,12,04,09,48,-2.80
2013,12,04,09,49,-2.70
2013,12,04,09,50,-2.70
2013,12,04,09,51,-2.70
2013,12,04,09,52,-2.60
2013,12,04,09,53,-2.50
2013,12,04,09,54,-2.50
2013,12,04,09,55,-2.40
2013,12,04,09,56,-2.30
2013,12,04,09,57,-2.30
2013,12,04,09,58,-2.30
2013,12,04,09,59,-2.20
2013,12,04,10,00,-2.10
2013,12,04,10,01,-2.10
2013,12,04,10,02,-2.00
2013,12,04,10,03,-1.90
2013,12,04,10,04,-1.90
2013,12,04,10,05,-1.80
2013,12,04,10,06,-1.80
2013,12,04,10,07,-1.80
2013,12,04,10,08,-1.70
2013,12,04,10,09,-1.70
2013,12,04,10,10,-1.70
2013,12,04,10,11,-1.60
2013,12,04,10,12,-1.60
2013,12,04,10,13,-1.60
2013,12,04,10,14,-1.50
2013,12,04,10,15,-1.50
2013,12,04,10,16,-1.50
2013,12,04,10,17,-1.40
2013,12,04,10,18,-1.40
2013,12,04,10,19,-1.30
2013,12,04,10,20,-1.30
2013,12,04,10,21,-1.20
2013,12,04,10,22,-1.20
2013,12,04,10,23,-1.10
2013,12,04,10,24,-1.10
2013,12,04,10,25,-1.00
2013,12,04,10,26,-1.00
2013,12,04,10,27,-0.90
2013,12,04,10,28,-0.80
2013,12,04,10,29,-0.80
2013,12,04,10,30,-0.70
2013,12,04,10,31,-0.70
2013,12,04,10,32,-0.70
2013,12,04,10,33,-0.60
2013,12,04,10,34,-0.60
2013,12,04,10,35,-0.60
2013,12,04,10,36,-0.50
2013,12,04,10,37,-0.50
2013,12,04,10,38,-0.50
2013,12,04,10,39,-0.40
2013,12,04,10,40,-0.40
2013,12,04,10,41,-0.40
2013,12,04,10,42,-0.30
2013,12,04,10,43,-0.30
2013,12,04,10,44,-0.30
2013,12,04,10,45,-0.30
2013,12,04,10,46,-0.20
2013,12,04,10,47,-0.20
2013,12,04,10,48,-0.10
2013,12,04,10,49,-0.10
2013,12,04,10,50,0.00
2013,12,04,10,51,0.10
2013,12,04,10,52,0.20
2013,12,04,10,53,0.20
2013,12,04,10,54,0.20
2013,12,04,10,55,0.30
2013,12,04,10,56,0.30
2013,12,04,10,57,0.30
2013,12,04,10,58,0.30
2013,12,04,10,59,0.40
2013,12,04,11,00,0.40
2013,12,04,11,01,0.50
2013,12,04,11,02,0.50
2013,12,04,11,03,0.60
2013,12,04,11,04,0.60
2013,12,04,11,05,0.70
2013,12,04,11,06,0.70
2013,12,04,11,07,0.80
2013,12,04,11,08,0.80
2013,12,04,11,09,0.90
2013,12,04,11,10,0.90
2013,12,04,11,11,1.00
2013,12,04,11,12,1.10
2013,12,04,11,13,1.10
2013,12,04,11,14,1.10
2013,12,04,11,15,1.20
2013,12,04,11,16,1.20
2013,12,04,11,17,1.20
2013,12,04,11,18,1.30
2013,12,04,11,19,1.30
2013,12,04,11,20,1.30
2013,12,04,11,21,1.30
2013,12,04,11,22,1.30
2013,12,04,11,23,1.30
2013,12,04,11,24,1.40
2013,12,04,11,25,1.40
2013,12,04,11,26,1.50
2013,12,04,11,27,1.50
2013,12,04,11,28,1.60
2013,12,04,11,29,1.60
2013,12,04,11,30,1.70
2013,12,04,11,31,1.80
2013,12,04,11,32,1.80
2013,12,04,11,33,1.90
2013,12,04,11,34,1.90
2013,12,04,11,35,2.00
2013,12,04,11,36,2.20
2013,12,04,11,37,2.20
2013,12,04,11,38,2.30
2013,12,04,11,39,2.30
2013,12,04,11,40,2.30
2013,12,04,11,41,2.30
2013,12,04,11,42,2.40
2013,12,04,11,43,2.40
2013,12,04,11,44,2.40
2013,12,04,11,45,2.40
2013,12,04,11,46,2.50
2013,12,04,11,47,2.50
2013,12,04,11,48,2.60
2013,12,04,11,49,2.60
2013,12,04,11,50,2.70
2013,12,04,11,51,2.80
2013,12,04,11,52,2.90
2013,12,04,11,53,2.90
2013,12,04,11,54,3.00
2013,12,04,11,55,3.00
2013,12,04,11,56,3.10
2013,12,04,11,57,3.10
2013,12,04,11,58,3.10
2013,12,04,11,59,3.10
2013,12,04,12,00,3.10
2013,12,04,12,01,3.20
2013,12,04,12,02,3.20
2013,12,04,12,03,3.20
2013,12,04,12,04,3.20
2013,12,04,12,05,3.30
2013,12,04,12,06,3.30
2013,12,04,12,07,3.30
2013,12,04,12,08,3.40
2013,12,04,12,09,3.40
2013,12,04,12,10,3.40
2013,12,04,12,11,3.40
2013,12,04,12,12,3.50
2013,12,04,12,13,3.50
2013,12,04,12,14,3.60
2013,12,04,12,15,3.70
2013,12,04,12,16,3.70
2013,12,04,12,17,3.70
2013,12,04,12,18,3.80
2013,12,04,12,19,3.80
2013,12,04,12,20,3.80
2013,12,04,12,21,3.80
2013,12,04,12,22,3.90
2013,12,04,12,23,3.90
2013,12,04,12,24,3.90
2013,12,04,12,25,3.90
2013,12,04,12,26,3.90
2013,12,04,12,27,3.90
2013,12,04,12,28,3.90
2013,12,04,12,29,4.00
2013,12,04,12,30,4.00
2013,12,04,12,31,4.00
2013,12,04,12,32,4.00
2013,12,04,12,33,4.00
2013,12,04,12,34,4.00
2013,12,04,12,35,4.10
2013,12,04,12,36,4.10
2013,12,04,12,37,4.10
2013,12,04,12,38,4.10
2013,12,04,12,39,4.10
2013,12,04,12,40,4.10
2013,12,04,12,41,4.20
2013,12,04,12,42,4.20
2013,12,04,12,43,4.20
2013,12,04,12,44,4.20
2013,12,04,12,45,4.20
2013,12,04,12,46,4.20
2013,12,04,12,47,4.20
2013,12,04,12,48,4.20
2013,12,04,12,49,4.20
2013,12,04,12,50,4.20
2013,12,04,12,51,4.20
2013,12,04,12,52,4.20
2013,12,04,12,53,4.20
2013,12,04,12,54,4.20
2013,12,04,12,55,4.20
2013,12,04,12,56,4.10
2013,12,04,12,57,4.10
2013,12,04,12,58,4.10
2013,12,04,12,59,4.10
2013,12,04,13,00,4.10
2013,12,04,13,01,4.10
2013,12,04,13,02,4.10
2013,12,04,13,03,4.20
2013,12,04,13,04,4.20
2013,12,04,13,05,4.20
2013,12,04,13,06,4.20
2013,12,04,13,07,4.20
2013,12,04,13,08,4.30
2013,12,04,13,09,4.30
2013,12,04,13,10,4.30
2013,12,04,13,11,4.30
2013,12,04,13,12,4.20
2013,12,04,13,13,4.20
2013,12,04,13,14,4.10
2013,12,04,13,15,4.10
2013,12,04,13,16,4.00
2013,12,04,13,17,4.00
2013,12,04,13,18,3.90
2013,12,04,13,19,3.90
2013,12,04,13,20,4.00
2013,12,04,13,21,4.00
2013,12,04,13,22,4.10
2013,12,04,13,23,4.10
2013,12,04,13,24,4.20
2013,12,04,13,25,4.30
2013,12,04,13,26,4.40
2013,12,04,13,27,4.40
2013,12,04,13,28,4.50
2013,12,04,13,29,4.50
2013,12,04,13,30,4.60
2013,12,04,13,31,4.60
2013,12,04,13,32,4.60
2013,12,04,13,33,4.70
2013,12,04,13,34,4.70
2013,12,04,13,35,4.80
2013,12,04,13,36,4.80
2013,12,04,13,37,4.80
2013,12,04,13,38,4.80
2013,12,04,13,39,4.70
2013,12,04,13,40,4.70
2013,12,04,13,41,4.70
2013,12,04,13,42,4.70
2013,12,04,13,43,4.60
2013,12,04,13,44,4.50
2013,12,04,13,45,4.40
2013,12,04,13,46,4.40
2013,12,04,13,47,4.30
2013,12,04,13,48,4.30
2013,12,04,13,49,4.30
2013,12,04,13,50,4.30
2013,12,04,13,51,4.30
2013,12,04,13,52,4.30
2013,12,04,13,53,4.30
2013,12,04,13,54,4.40
2013,12,04,13,55,4.40
2013,12,04,13,56,4.40
2013,12,04,13,57,4.50
2013,12,04,13,58,4.50
2013,12,04,13,59,4.50
2013,12,04,14,00,4.50
2013,12,04,14,01,4.40
2013,12,04,14,02,4.40
2013,12,04,14,03,4.50
2013,12,04,14,04,4.50
2013,12,04,14,05,4.40
2013,12,04,14,06,4.40
2013,12,04,14,07,4.40
2013,12,04,14,08,4.40
2013,12,04,14,09,4.40
2013,12,04,14,10,4.50
2013,12,04,14,11,4.50
2013,12,04,14,12,4.50
2013,12,04,14,13,4.50
2013,12,04,14,14,4.50
2013,12,04,14,15,4.40
2013,12,04,14,16,4.40
2013,12,04,14,17,4.40
2013,12,04,14,18,4.40
2013,12,04,14,19,4.40
2013,12,04,14,20,4.50
2013,12,04,14,21,4.50
2013,12,04,14,22,4.60
2013,12,04,14,23,4.60
2013,12,04,14,24,4.70
2013,12,04,14,25,4.80
2013,12,04,14,26,4.80
2013,12,04,14,27,4.90
2013,12,04,14,28,4.90
2013,12,04,14,29,5.00
2013,12,04,14,30,5.00
2013,12,04,14,31,5.10
2013,12,04,14,32,5.10
2013,12,04,14,33,5.10
2013,12,04,14,34,5.10
2013,12,04,14,35,5.10
2013,12,04,14,36,5.00
2013,12,04,14,37,5.00
2013,12,04,14,38,4.90
2013,12,04,14,39,4.90
2013,12,04,14,40,4.80
2013,12,04,14,41,4.80
2013,12,04,14,42,4.80
2013,12,04,14,43,4.70
2013,12,04,14,44,4.60
2013,12,04,14,45,4.60
2013,12,04,14,46,4.50
2013,12,04,14,47,4.50
2013,12,04,14,48,4.50
2013,12,04,14,49,4.60
2013,12,04,14,50,4.60
2013,12,04,14,51,4.60
2013,12,04,14,52,4.60
2013,12,04,14,53,4.60
2013,12,04,14,54,4.60
2013,12,04,14,55,4.60
2013,12,04,14,56,4.60
2013,12,04,14,57,4.60
2013,12,04,14,58,4.60
2013,12,04,14,59,4.60
2013,12,04,15,00,4.50
2013,12,04,15,01,4.50
2013,12,04,15,02,4.40
2013,12,04,15,03,4.40
2013,12,04,15,04,4.30
2013,12,04,15,05,4.30
2013,12,04,15,06,4.30
2013,12,04,15,07,4.30
2013,12,04,15,08,4.30
2013,12,04,15,09,4.40
2013,12,04,15,10,4.40
2013,12,04,15,11,4.50
2013,12,04,15,12,4.50
2013,12,04,15,13,4.60
2013,12,04,15,14,4.70
2013,12,04,15,15,4.70
2013,12,04,15,16,4.70
2013,12,04,15,17,4.80
2013,12,04,15,18,4.80
2013,12,04,15,19,4.80
2013,12,04,15,20,4.80
2013,12,04,15,21,4.80
2013,12,04,15,22,4.80
2013,12,04,15,23,4.70
2013,12,04,15,24,4.70
2013,12,04,15,25,4.70
2013,12,04,15,26,4.60
2013,12,04,15,27,4.60
2013,12,04,15,28,4.60
2013,12,04,15,29,4.60
2013,12,04,15,30,4.50
2013,12,04,15,31,4.50
2013,12,04,15,32,4.50
2013,12,04,15,33,4.40
2013,12,04,15,34,4.40
2013,12,04,15,35,4.40
2013,12,04,15,36,4.30
2013,12,04,15,37,4.30
2013,12,04,15,38,4.30
2013,12,04,15,39,4.30
2013,12,04,15,40,4.30
2013,12,04,15,41,4.20
2013,12,04,15,42,4.20
2013,12,04,15,43,4.20
2013,12,04,15,44,4.20
2013,12,04,15,45,4.20
2013,12,04,15,46,4.20
2013,12,04,15,47,4.20
2013,12,04,15,48,4.20
2013,12,04,15,49,4.10
2013,12,04,15,50,4.10
2013,12,04,15,51,4.10
2013,12,04,15,52,4.10
2013,12,04,15,53,4.10
2013,12,04,15,54,4.00
2013,12,04,15,55,4.00
2013,12,04,15,56,4.00
2013,12,04,15,57,3.90
2013,12,04,15,58,3.90
2013,12,04,15,59,3.90
2013,12,04,16,00,3.80
2013,12,04,16,01,3.80
2013,12,04,16,02,3.80
2013,12,04,16,03,3.80
2013,12,04,16,04,3.70
2013,12,04,16,05,3.70
2013,12,04,16,06,3.70
2013,12,04,16,07,3.60
2013,12,04,16,08,3.60
2013,12,04,16,09,3.60
2013,12,04,16,10,3.50
2013,12,04,16,11,3.40
2013,12,04,16,12,3.40
2013,12,04,16,13,3.40
2013,12,04,16,14,3.30
2013,12,04,16,15,3.30
2013,12,04,16,16,3.20
2013,12,04,16,17,3.20
2013,12,04,16,18,3.10
2013,12,04,16,19,3.00
2013,12,04,16,20,2.90
2013,12,04,16,21,2.90
2013,12,04,16,22,2.80
2013,12,04,16,23,2.70
2013,12,04,16,24,2.60
2013,12,04,16,25,2.60
2013,12,04,16,26,2.50
2013,12,04,16,27,2.50
2013,12,04,16,28,2.40
2013,12,04,16,29,2.30
2013,12,04,16,30,2.30
2013,12,04,16,31,2.20
2013,12,04,16,32,2.20
2013,12,04,16,33,2.10
2013,12,04,16,34,2.00
2013,12,04,16,35,2.00
2013,12,04,16,36,1.90
2013,12,04,16,37,1.90
2013,12,04,16,38,1.80
2013,12,04,16,39,1.70
2013,12,04,16,40,1.60
2013,12,04,16,41,1.60
2013,12,04,16,42,1.50
2013,12,04,16,43,1.40
2013,12,04,16,44,1.30
2013,12,04,16,45,1.30
2013,12,04,16,46,1.20
2013,12,04,16,47,1.20
2013,12,04,16,48,1.10
2013,12,04,16,49,1.00
2013,12,04,16,50,1.00
2013,12,04,16,51,0.90
2013,12,04,16,52,0.80
2013,12,04,16,53,0.80
2013,12,04,16,54,0.70
2013,12,04,16,55,0.70
2013,12,04,16,56,0.60
2013,12,04,16,57,0.60
2013,12,04,16,58,0.50
2013,12,04,16,59,0.40
2013,12,04,17,00,0.40
2013,12,04,17,01,0.30
2013,12,04,17,02,0.30
2013,12,04,17,03,0.30
2013,12,04,17,04,0.20
2013,12,04,17,05,0.20
2013,12,04,17,06,0.10
2013,12,04,17,07,0.10
2013,12,04,17,08,0.00
2013,12,04,17,09,0.00
2013,12,04,17,10,-0.10
2013,12,04,17,11,-0.10
2013,12,04,17,12,-0.10
2013,12,04,17,13,-0.10
2013,12,04,17,14,-0.20
2013,12,04,17,15,-0.20
2013,12,04,17,16,-0.20
2013,12,04,17,17,-0.30
2013,12,04,17,18,-0.30
2013,12,04,17,19,-0.40
2013,12,04,17,20,-0.40
2013,12,04,17,21,-0.40
2013,12,04,17,22,-0.50
2013,12,04,17,23,-0.50
2013,12,04,17,24,-0.50
2013,12,04,17,25,-0.60
2013,12,04,17,26,-0.60
2013,12,04,17,27,-0.60
2013,12,04,17,28,-0.70
2013,12,04,17,29,-0.70
2013,12,04,17,30,-0.70
2013,12,04,17,31,-0.70
2013,12,04,17,32,-0.80
2013,12,04,17,33,-0.80
2013,12,04,17,34,-0.80
2013,12,04,17,35,-0.80
2013,12,04,17,36,-0.90
2013,12,04,17,37,-0.90
2013,12,04,17,38,-0.90
2013,12,04,17,39,-0.90
2013,12,04,17,40,-1.00
2013,12,04,17,41,-1.00
2013,12,04,17,42,-1.00
2013,12,04,17,43,-1.00
2013,12,04,17,44,-1.10
2013,12,04,17,45,-1.10
2013,12,04,17,46,-1.10
2013,12,04,17,47,-1.10
2013,12,04,17,48,-1.20
2013,12,04,17,49,-1.20
2013,12,04,17,50,-1.20
2013,12,04,17,51,-1.20
2013,12,04,17,52,-1.20
2013,12,04,17,53,-1.30
2013,12,04,17,54,-1.30
2013,12,04,17,55,-1.30
2013,12,04,17,56,-1.30
2013,12,04,17,57,-1.30
2013,12,04,17,58,-1.30
2013,12,04,17,59,-1.30
2013,12,04,18,00,-1.30
2013,12,04,18,01,-1.30
2013,12,04,18,02,-1.30
2013,12,04,18,03,-1.30
2013,12,04,18,04,-1.30
2013,12,04,18,05,-1.30
2013,12,04,18,06,-1.30
2013,12,04,18,07,-1.40
2013,12,04,18,08,-1.40
2013,12,04,18,09,-1.40
2013,12,04,18,10,-1.50
2013,12,04,18,11,-1.50
2013,12,04,18,12,-1.60
2013,12,04,18,13,-1.60
2013,12,04,18,14,-1.60
2013,12,04,18,15,-1.70
2013,12,04,18,16,-1.70
2013,12,04,18,17,-1.70
2013,12,04,18,18,-1.80
2013,12,04,18,19,-1.80
2013,12,04,18,20,-1.80
2013,12,04,18,21,-1.90
2013,12,04,18,22,-1.90
2013,12,04,18,23,-1.90
2013,12,04,18,24,-2.00
2013,12,04,18,25,-2.00
2013,12,04,18,26,-2.10
2013,12,04,18,27,-2.10
2013,12,04,18,28,-2.10
2013,12,04,18,29,-2.20
2013,12,04,18,30,-2.20
2013,12,04,18,31,-2.20
2013,12,04,18,32,-2.20
2013,12,04,18,33,-2.20
2013,12,04,18,34,-2.20
2013,12,04,18,35,-2.20
2013,12,04,18,36,-2.20
2013,12,04,18,37,-2.20
2013,12,04,18,38,-2.20
2013,12,04,18,39,-2.20
2013,12,04,18,40,-2.20
2013,12,04,18,41,-2.20
2013,12,04,18,42,-2.20
2013,12,04,18,43,-2.20
2013,12,04,18,44,-2.20
2013,12,04,18,45,-2.20
2013,12,04,18,46,-2.20
2013,12,04,18,47,-2.20
2013,12,04,18,48,-2.20
2013,12,04,18,49,-2.30
2013,12,04,18,50,-2.30
2013,12,04,18,51,-2.30
2013,12,04,18,52,-2.30
2013,12,04,18,53,-2.30
2013,12,04,18,54,-2.30
2013,12,04,18,55,-2.30
2013,12,04,18,56,-2.30
2013,12,04,18,57,-2.30
2013,12,04,18,58,-2.30
2013,12,04,18,59,-2.30
2013,12,04,19,00,-2.30
2013,12,04,19,01,-2.30
2013,12,04,19,02,-2.30
2013,12,04,19,03,-2.30
2013,12,04,19,04,-2.30
2013,12,04,19,05,-2.30
2013,12,04,19,06,-2.30
2013,12,04,19,07,-2.30
2013,12,04,19,08,-2.30
2013,12,04,19,09,-2.30
2013,12,04,19,10,-2.40
2013,12,04,19,11,-2.40
2013,12,04,19,12,-2.40
2013,12,04,19,13,-2.40
2013,12,04,19,14,-2.40
2013,12,04,19,15,-2.40
2013,12,04,19,16,-2.40
2013,12,04,19,17,-2.40
2013,12,04,19,18,-2.40
2013,12,04,19,19,-2.40
2013,12,04,19,20,-2.40
2013,12,04,19,21,-2.50
2013,12,04,19,22,-2.50
2013,12,04,19,23,-2.50
2013,12,04,19,24,-2.50
2013,12,04,19,25,-2.60
2013,12,04,19,26,-2.60
2013,12,04,19,27,-2.60
2013,12,04,19,28,-2.60
2013,12,04,19,29,-2.60
2013,12,04,19,30,-2.60
2013,12,04,19,31,-2.60
2013,12,04,19,32,-2.60
2013,12,04,19,33,-2.60
2013,12,04,19,34,-2.70
2013,12,04,19,35,-2.60
2013,12,04,19,36,-2.60
2013,12,04,19,37,-2.60
2013,12,04,19,38,-2.70
2013,12,04,19,39,-2.70
2013,12,04,19,40,-2.70
2013,12,04,19,41,-2.70
2013,12,04,19,42,-2.70
2013,12,04,19,43,-2.70
2013,12,04,19,44,-2.70
2013,12,04,19,45,-2.70
2013,12,04,19,46,-2.80
2013,12,04,19,47,-2.80
2013,12,04,19,48,-2.80
2013,12,04,19,49,-2.80
2013,12,04,19,50,-2.80
2013,12,04,19,51,-2.80
2013,12,04,19,52,-2.80
2013,12,04,19,53,-2.90
2013,12,04,19,54,-2.90
2013,12,04,19,55,-2.90
2013,12,04,19,56,-2.90
2013,12,04,19,57,-2.90
2013,12,04,19,58,-3.00
2013,12,04,19,59,-3.00
2013,12,04,20,00,-3.00
2013,12,04,20,01,-3.10
2013,12,04,20,02,-3.10
2013,12,04,20,03,-3.10
2013,12,04,20,04,-3.10
2013,12,04,20,05,-3.10